Weather History for Rhinelander, WI

Change the Weather History Date:

Wednesday, September 10, 2014

  Actual Average Record
Temperature  
Mean Temperature 52 °F 58 °F  
Max Temperature 64 °F 69 °F 98 °F (1908)
Min Temperature 39 °F 47 °F 25 °F (1917)
Degree Days  
Heating Degree Days 13 8  
Month to date heating degree days 50 65  
Since 1 July heating degree days 250 192  
Cooling Degree Days 0 1  
Month to date cooling degree days 1 10  
Year to date cooling degree days 148 251  
Growing Degree Days 2 (Base 50)    
Moisture  
Dew Point 50 °F    
Average Humidity 91    
Maximum Humidity 100    
Minimum Humidity 82    
Precipitation  
Precipitation 1.84 in 0.14 in 2.23 in (1928)
Month to date precipitation 5.43 1.35  
Year to date precipitation 31.89 22.23  
Snow  
Snow T in - 0.00 in ()
Month to date snowfall T  
Since 1 July snowfall T  
Since 1 September snowfall T  
Snow Depth 0.00 in    
Sea Level Pressure  
Sea Level Pressure 29.76 in    
Wind  
Wind Speed 10 mph (NNE)    
Max Wind Speed 20 mph    
Max Gust Speed 32 mph    
Visibility 5 miles    
Events Rain    
T = Trace of Precipitation, MM = Missing Value Source: NWS Daily Summary

Daily Weather History Graph

Daily Weather History Graph

Search for Another Location

Airport:

Trip Planner

Search our weather history database for the weather conditions in past years. The results will help you decide how hot, cold, wet, or windy it might be!

Date:

Astronomy

Sep. 10, 2014 Rise Set
Actual Time 6:30 AM CDT 7:18 PM CDT
Civil Twilight 6:00 AM CDT 7:48 PM CDT
Nautical Twilight 5:24 AM CDT 8:24 PM CDT
Astronomical Twilight 4:46 AM CDT 9:01 PM CDT
Moon 8:08 PM CDT (9/10) 8:24 AM CDT (9/10)
Length of Visible Light 13h 48m
Length of Day
12h 48m
Waning Gibbous, 96% of the Moon is Illuminated
Sep 10
Waning Gibbous
Sep 15
Last Quarter
Sep 24
New
Oct 1
First Quarter
Oct 8
Full

Hourly Weather History & Observations

Time (CDT) Temp. Windchill Dew Point Humidity Pressure Visibility Wind Dir Wind Speed Gust Speed Precip Events Conditions
12:53 AM 64.0 °F - 63.0 °F 96% 29.82 in 3.0 mi East 4.6 mph - 0.07 in Rain Light Rain
1:53 AM 63.0 °F - 63.0 °F 100% 29.81 in 4.0 mi SE 3.5 mph - 0.00 in Rain Light Rain
2:00 AM 64.0 °F - 63.0 °F 96% 29.82 in 4.0 mi SE 3.5 mph - 0.00 in   Overcast
2:45 AM 63.0 °F - 63.0 °F 100% 29.81 in 2.5 mi SE 5.8 mph - 0.03 in Rain Rain
2:53 AM 63.0 °F - 62.1 °F 97% 29.79 in 3.0 mi SSE 4.6 mph - 0.05 in Rain Rain
3:26 AM 63.0 °F - 62.1 °F 97% 29.77 in 2.5 mi ENE 5.8 mph - 0.03 in Rain Light Rain
3:36 AM 63.0 °F - 62.1 °F 97% 29.77 in 3.0 mi ENE 4.6 mph - 0.03 in Rain Light Rain
3:46 AM 63.0 °F - 62.1 °F 97% 29.78 in 2.5 mi Calm Calm - 0.03 in Rain Light Rain
3:53 AM 63.0 °F - 62.1 °F 97% 29.77 in 2.0 mi Variable 6.9 mph - 0.09 in Rain Rain
4:00 AM 63.0 °F - 62.1 °F 97% 29.77 in 1.5 mi East 6.9 mph - 0.03 in Rain Light Rain
4:03 AM 63.0 °F - 62.1 °F 97% 29.77 in 1.5 mi East 8.1 mph - 0.03 in Rain Light Rain
4:13 AM 63.0 °F - 62.1 °F 97% 29.76 in 2.5 mi East 8.1 mph - 0.03 in Rain Light Rain
4:20 AM 63.0 °F - 62.1 °F 97% 29.76 in 5.0 mi ENE 4.6 mph - 0.03 in Rain Light Rain
4:31 AM 63.0 °F - 62.1 °F 97% 29.75 in 5.0 mi NE 3.5 mph - 0.04 in Rain Light Rain
5:53 AM 62.1 °F - 61.0 °F 96% 29.70 in 2.5 mi ENE 4.6 mph - 0.05 in Rain Light Rain
6:30 AM 62.1 °F - 61.0 °F 96% 29.69 in 3.0 mi ENE 8.1 mph - 0.10 in Rain Rain
6:53 AM 62.1 °F - 61.0 °F 96% 29.67 in 4.0 mi ENE 8.1 mph - 0.16 in Rain Rain
7:15 AM 59.0 °F - 57.9 °F 96% 29.67 in 2.5 mi NNE 10.4 mph - 0.08 in Rain Rain
7:49 AM 55.4 °F - 55.4 °F 100% 29.66 in 4.0 mi North 10.4 mph 20.7 mph 0.16 in Rain Rain
7:53 AM 55.9 °F - 55.0 °F 97% 29.66 in 3.0 mi NNE 10.4 mph 20.7 mph 0.18 in Rain Rain
8:01 AM 55.0 °F - 54.0 °F 96% 29.65 in 4.0 mi North 10.4 mph 19.6 mph 0.01 in Rain Rain
8:45 AM 52.0 °F - 52.0 °F 100% 29.66 in 2.0 mi NNE 9.2 mph 18.4 mph 0.13 in Rain Heavy Rain
8:53 AM 52.0 °F - 52.0 °F 100% 29.66 in 2.0 mi Variable 6.9 mph - 0.19 in Rain Heavy Rain
9:39 AM 51.1 °F - 50.0 °F 96% 29.64 in 2.5 mi NNE 9.2 mph 19.6 mph 0.22 in Rain Heavy Rain
9:48 AM 51.8 °F - 50.0 °F 94% 29.64 in 3.0 mi NNE 10.4 mph 18.4 mph 0.25 in Rain Rain
9:53 AM 50.0 °F - 50.0 °F 100% 29.64 in 3.0 mi North 9.2 mph 18.4 mph 0.27 in Rain Heavy Rain
10:00 AM 50.0 °F - 50.0 °F 100% 29.64 in 2.5 mi NNE 11.5 mph 20.7 mph 0.04 in Rain Heavy Rain
10:25 AM 50.0 °F - 48.9 °F 96% 29.63 in 1.8 mi North 8.1 mph 19.6 mph 0.19 in Rain Heavy Rain
10:30 AM 50.0 °F - 48.9 °F 96% 29.63 in 2.0 mi NNE 9.2 mph 19.6 mph 0.22 in Rain Heavy Rain
10:53 AM 48.9 °F - 48.0 °F 97% 29.64 in 2.0 mi North 10.4 mph 21.9 mph 0.34 in Rain Rain
11:34 AM 48.0 °F - 46.9 °F 96% 29.63 in 1.8 mi NNE 12.7 mph 24.2 mph 0.19 in Rain Heavy Rain
11:47 AM 48.2 °F - 46.4 °F 93% 29.63 in 2.0 mi North 10.4 mph 19.6 mph 0.26 in Rain Heavy Rain
11:53 AM 48.0 °F - 46.9 °F 96% 29.64 in 2.5 mi North 8.1 mph 18.4 mph 0.28 in Rain Rain
12:09 PM 48.0 °F - 46.0 °F 93% 29.64 in 4.0 mi NNE 13.8 mph 26.5 mph 0.04 in Rain Rain
12:53 PM 46.9 °F - 46.0 °F 97% 29.65 in 6.0 mi North 10.4 mph 23.0 mph 0.12 in Rain Light Rain
1:53 PM 46.0 °F 40.6 °F 45.0 °F 96% 29.68 in 4.0 mi North 11.5 mph 21.9 mph 0.02 in Rain Light Rain
2:53 PM 45.0 °F 38.9 °F 43.0 °F 93% 29.70 in 10.0 mi North 12.7 mph 23.0 mph 0.03 in Rain Light Rain
3:53 PM 45.0 °F 40.1 °F 42.1 °F 90% 29.73 in 10.0 mi North 9.2 mph 26.5 mph 0.01 in Rain Light Rain
4:31 PM 44.1 °F 37.7 °F 42.1 °F 93% 29.75 in 10.0 mi NNW 12.7 mph 28.8 mph 0.00 in   Overcast
4:53 PM 43.0 °F 36.0 °F 41.0 °F 93% 29.78 in 10.0 mi North 13.8 mph 21.9 mph 0.00 in   Overcast
5:17 PM 43.0 °F 36.4 °F 39.9 °F 89% 29.79 in 10.0 mi North 12.7 mph 31.1 mph N/A   Overcast
5:53 PM 43.0 °F 35.4 °F 39.9 °F 89% 29.82 in 10.0 mi North 16.1 mph 32.2 mph N/A   Overcast
6:53 PM 42.1 °F 35.2 °F 37.9 °F 85% 29.86 in 10.0 mi North 12.7 mph 26.5 mph 0.00 in   Overcast
7:04 PM 41.0 °F 35.2 °F 39.0 °F 93% 29.85 in 5.0 mi NNW 9.2 mph 19.6 mph 0.00 in Rain Light Rain
7:53 PM 41.0 °F 36.4 °F 39.0 °F 93% 29.91 in 8.0 mi Variable 6.9 mph - 0.00 in Rain Light Rain
8:14 PM 39.9 °F 33.4 °F 37.0 °F 89% 29.90 in 10.0 mi North 10.4 mph 20.7 mph 0.00 in   Overcast
8:23 PM 39.9 °F 33.4 °F 37.0 °F 89% 29.91 in 10.0 mi North 10.4 mph 21.9 mph 0.00 in   Overcast
8:53 PM 39.9 °F 32.9 °F 36.0 °F 86% 29.95 in 10.0 mi North 11.5 mph 25.3 mph 0.00 in   Overcast
9:07 PM 39.9 °F 32.5 °F 36.0 °F 86% 29.93 in 10.0 mi North 12.7 mph 25.3 mph N/A   Overcast
9:17 PM 39.9 °F 32.1 °F 36.0 °F 86% 29.93 in 10.0 mi North 13.8 mph 28.8 mph N/A   Overcast
9:53 PM 39.9 °F 32.5 °F 36.0 °F 86% 29.98 in 10.0 mi North 12.7 mph 20.7 mph N/A   Overcast
10:16 PM 39.0 °F 31.8 °F 35.1 °F 86% 29.95 in 10.0 mi North 11.5 mph 23.0 mph N/A   Overcast
10:45 PM 39.0 °F 32.3 °F 35.1 °F 86% 29.96 in 10.0 mi North 10.4 mph 25.3 mph N/A   Overcast
10:53 PM 39.0 °F - 35.1 °F 86% 30.00 in 10.0 mi North - - N/A   Overcast
11:53 PM 39.0 °F 31.4 °F 35.1 °F 86% 30.01 in 10.0 mi North 12.7 mph 23.0 mph N/A   Overcast